FW1492 Weather Reports


time (UTC)temp
C
wind
direction
speed
KPH
gust
KPH
rain 1hr
cm
rain 24hr
cm
rain mn
cm
humidity
%
barometer
mb
20260505041530 13 210 4.8 9.7 0.00 0.00 0.00 61 1010.9
20260505040014 13 178 3.2 8.0 0.00 0.00 0.00 60 1010.9
20260505034521 14 195 4.8 8.0 0.00 0.00 0.00 59 1011.1
20260505033013 14 207 3.2 8.0 0.00 0.00 0.00 58 1011.1
20260505031523 14 212 4.8 8.0 0.00 0.00 0.00 58 1011.3
20260505030011 14 198 3.2 8.0 0.00 0.00 0.00 57 1011.6
20260505024511 15 204 4.8 8.0 0.00 0.00 0.00 56 1011.5
20260505023011 15 199 3.2 6.4 0.00 0.00 0.00 56 1011.5
20260505021510 15 206 1.6 4.8 0.00 0.00 0.00 55 1011.5
20260505020009 15 210 3.2 4.8 0.00 0.00 0.00 55 1011.7
20260505014507 15 204 3.2 6.4 0.00 0.00 0.00 55 1011.7
20260505013009 15 215 3.2 6.4 0.00 0.00 0.00 55 1011.6
20260505011506 15 226 1.6 6.4 0.00 0.00 0.00 54 1011.3
20260505010006 16 179 1.6 6.4 0.00 0.00 0.00 54 1011.2
20260505004506 16 229 3.2 6.4 0.00 0.00 0.00 53 1011.1
20260505003005 16 209 1.6 4.8 0.00 0.00 0.00 53 1011.0
20260505001504 16 214 1.6 4.8 0.00 0.00 0.00 52 1010.9
20260505000006 17 200 3.2 9.7 0.00 0.00 0.00 50 1010.5
20260504234502 17 235 1.6 6.4 0.00 0.00 0.00 49 1010.5
20260504233002 18 205 3.2 6.4 0.00 0.00 0.00 46 1010.1
20260504231501 18 261 4.8 11.3 0.00 0.00 0.00 45 1010.0
20260504230100 18 233 4.8 11.3 0.00 0.00 0.00 44 1009.9
20260504224609 18 213 1.6 9.7 0.00 0.00 0.00 44 1010.0
20260504223134 18 234 3.2 8.0 0.00 0.00 0.00 43 1009.9
20260504221556 19 251 3.2 9.7 0.00 0.00 0.00 42 1010.1
20260504220056 19 233 3.2 12.9 0.00 0.00 0.00 43 1010.4
20260504214554 20 306 3.2 12.9 0.00 0.00 0.00 42 1010.3
20260504213100 20 250 4.8 9.7 0.00 0.00 0.00 42 1010.6
20260504211550 20 260 3.2 9.7 0.00 0.00 0.00 42 1010.6
20260504210051 20 281 4.8 11.3 0.00 0.00 0.00 41 1010.6
20260504204549 20 319 4.8 16.1 0.00 0.00 0.00 41 1010.5
20260504203102 20 265 1.6 14.5 0.00 0.00 0.00 42 1010.4
20260504201544 20 234 8.0 14.5 0.00 0.00 0.00 40 1010.6
20260504200044 19 265 6.4 16.1 0.00 0.00 0.00 42 1010.8
20260504194540 19 243 3.2 11.3 0.00 0.00 0.00 41 1010.9
20260504193038 19 288 6.4 17.7 0.00 0.00 0.00 40 1011.0
20260504191536 19 262 8.0 16.1 0.00 0.00 0.00 40 1011.1
20260504190036 18 203 1.6 14.5 0.00 0.00 0.00 42 1011.4
20260504184530 18 269 4.8 17.7 0.00 0.00 0.00 43 1011.4
20260504183030 18 271 6.4 16.1 0.00 0.00 0.00 41 1011.5
20260504181531 18 287 4.8 12.9 0.00 0.00 0.00 41 1011.9
20260504180027 18 316 6.4 12.9 0.00 0.00 0.00 42 1011.8
20260504174524 17 220 6.4 19.3 0.00 0.00 0.00 42 1012.2
20260504173020 17 252 6.4 14.5 0.00 0.00 0.00 41 1012.2
20260504171517 17 291 8.0 16.1 0.00 0.00 0.00 42 1012.7
20260504150107 14 295 8.0 17.7 0.00 0.00 0.00 44 1014.3
20260504081511 8 266 3.2 9.7 0.00 0.00 0.00 57 1014.9